Fort Lewis, WA

10:07 AM PDT on April 26, 2017 (GMT -0700)
Gray Army Air Field

Weather History for KGRF - January, 2013

Change the Weather History Date:

Thursday, January 31, 2013

  Actual Average Record
Temperature  
Mean Temperature 46 °F -  
Max Temperature 50 °F 47 °F 59 °F (1998)
Min Temperature 41 °F 34 °F 23 °F (2007)
Degree Days  
Heating Degree Days 20    
Moisture  
Dew Point 45 °F    
Average Humidity 94    
Maximum Humidity 100    
Minimum Humidity 82    
Precipitation  
Precipitation 0.02 in - - ()
Sea Level Pressure  
Sea Level Pressure 30.35 in    
Wind  
Wind Speed 5 mph (South)    
Max Wind Speed 9 mph    
Max Gust Speed -    
Visibility 10 miles    
Events      
Averages and records for this station are not official NWS values.
T = Trace of Precipitation, MM = Missing Value Source: NWS Daily Summary

Daily Weather History Graph

Daily Weather History Graph

Search for Another Location

Airport or City:

Trip Planner

Search our weather history database for the weather conditions in past years. The results will help you decide how hot, cold, wet, or windy it might be!

Date:

Astronomy

Jan. 31, 2013 Rise Set
Actual Time 7:36 AM PST 5:12 PM PST
Civil Twilight 7:03 AM PST 5:44 PM PST
Nautical Twilight 6:26 AM PST 6:21 PM PST
Astronomical Twilight 5:51 AM PST 6:57 PM PST
Moon 10:45 PM PST (1/31) 9:16 AM PST (1/31)
Length of Visible Light 10h 41m
Length of Day
9h 35m
Waning Gibbous, 79% of the Moon is Illuminated
Jan 31
Waning Gibbous
Feb 3
Last Quarter
Feb 9
New
Feb 17
First Quarter
Feb 25
Full

Hourly Weather History & Observations

Time (PST) Temp. Windchill Dew Point Humidity Pressure Visibility Wind Dir Wind Speed Gust Speed Precip Events Conditions
12:03 AM 46.4 °F 44.3 °F 46.4 °F 100% 30.38 in 10.0 mi SSE 4.6 mph - N/A   Overcast
12:08 AM 46.4 °F 45.2 °F 46.4 °F 100% 30.38 in 10.0 mi SSE 3.5 mph - N/A   Overcast
12:43 AM 46.4 °F 43.5 °F 46.4 °F 100% 30.38 in 10.0 mi SSE 5.8 mph - N/A   Overcast
12:53 AM 46.4 °F 43.5 °F 46.4 °F 100% 30.38 in 10.0 mi SSE 5.8 mph - N/A   Overcast
12:58 AM 47.1 °F - 46.0 °F 96% 30.40 in 10.0 mi SSE 5.8 mph - N/A   Overcast
1:18 AM 46.4 °F 42.9 °F 46.4 °F 100% 30.38 in 10.0 mi SSE 6.9 mph - N/A   Overcast
1:23 AM 46.4 °F 44.3 °F 46.4 °F 100% 30.39 in 10.0 mi SSE 4.6 mph - N/A   Overcast
1:33 AM 46.4 °F 43.5 °F 46.4 °F 100% 30.39 in 10.0 mi SSE 5.8 mph - N/A   Overcast
1:58 AM 46.4 °F 44.3 °F 45.9 °F 98% 30.41 in 10.0 mi SSE 4.6 mph - N/A   Overcast
2:33 AM 46.4 °F 42.9 °F 44.6 °F 93% 30.40 in 10.0 mi SSE 6.9 mph - N/A   Mostly Cloudy
2:58 AM 46.0 °F 43.1 °F 45.3 °F 97% 30.42 in 10.0 mi SSE 5.8 mph - N/A   Mostly Cloudy
3:28 AM 46.4 °F 44.3 °F 46.4 °F 100% 30.40 in 10.0 mi SSE 4.6 mph - N/A   Overcast
3:48 AM 46.4 °F 44.3 °F 44.6 °F 93% 30.40 in 10.0 mi SSE 4.6 mph - N/A   Mostly Cloudy
3:58 AM 46.2 °F 43.3 °F 45.3 °F 97% 30.42 in 10.0 mi SSE 5.8 mph - N/A   Mostly Cloudy
4:58 AM 43.0 °F 38.2 °F 42.8 °F 99% 30.40 in 10.0 mi SSE 8.1 mph - N/A   Clear
5:58 AM 43.3 °F 38.6 °F 43.2 °F 99% 30.40 in 10.0 mi SSE 8.1 mph - N/A   Clear
6:58 AM 41.5 °F 37.1 °F 41.2 °F 99% 30.40 in 10.0 mi SSE 6.9 mph - N/A   Partly Cloudy
7:58 AM 42.3 °F 37.3 °F 41.9 °F 99% 30.39 in 10.0 mi SSE 8.1 mph - N/A   Mostly Cloudy
8:58 AM 45.0 °F 40.6 °F 44.2 °F 97% 30.39 in 10.0 mi SSE 8.1 mph - N/A   Mostly Cloudy
9:58 AM 47.5 °F - 43.5 °F 86% 30.39 in 10.0 mi SSE 4.6 mph - N/A   Overcast
10:23 AM 46.4 °F 43.5 °F 44.6 °F 93% 30.37 in 10.0 mi SSE 5.8 mph - N/A   Light Drizzle
10:51 AM 46.4 °F 43.5 °F 44.6 °F 93% 30.37 in 10.0 mi SSE 5.8 mph - N/A   Mostly Cloudy
10:58 AM 47.1 °F - 45.3 °F 93% 30.39 in 10.0 mi SSE 5.8 mph - 0.02 in   Mostly Cloudy
11:58 AM 47.3 °F - 45.7 °F 94% 30.37 in 10.0 mi SSE 3.5 mph - N/A   Overcast
12:58 PM 47.7 °F - 45.5 °F 92% 30.37 in 10.0 mi SSE 5.8 mph - N/A   Overcast
1:58 PM 49.1 °F - 45.0 °F 86% 30.35 in 10.0 mi SSE 8.1 mph - N/A   Overcast
2:13 PM 50.0 °F - 44.6 °F 82% 30.32 in 10.0 mi SSE 9.2 mph - N/A   Mostly Cloudy
2:58 PM 49.8 °F - 44.6 °F 82% 30.34 in 10.0 mi SSE 8.1 mph - N/A   Overcast
3:58 PM 48.6 °F - 44.1 °F 84% 30.33 in 10.0 mi SSE 5.8 mph - N/A   Overcast
4:43 PM 48.2 °F - 44.6 °F 87% 30.31 in 10.0 mi SSW 5.8 mph - N/A   Overcast
4:58 PM 48.4 °F - 44.1 °F 85% 30.33 in 10.0 mi SSW 8.1 mph - N/A   Overcast
5:58 PM 47.7 °F - 43.7 °F 86% 30.33 in 10.0 mi SSW 6.9 mph - N/A   Overcast
6:03 PM 48.2 °F - 44.6 °F 87% 30.31 in 10.0 mi SSW 6.9 mph - N/A   Overcast
6:13 PM 48.2 °F - 44.6 °F 87% 30.31 in 10.0 mi SW 4.6 mph - N/A   Overcast
6:28 PM 46.4 °F 45.2 °F 44.6 °F 93% 30.31 in 10.0 mi SW 3.5 mph - N/A   Overcast
6:38 PM 46.4 °F 44.3 °F 44.6 °F 93% 30.31 in 10.0 mi SW 4.6 mph - N/A   Overcast
6:48 PM 46.4 °F 44.3 °F 44.6 °F 93% 30.31 in 10.0 mi SW 4.6 mph - N/A   Mostly Cloudy
6:58 PM 46.8 °F - 44.2 °F 91% 30.33 in 10.0 mi SW 3.5 mph - N/A   Mostly Cloudy
7:13 PM 46.4 °F 44.3 °F 44.6 °F 93% 30.31 in 10.0 mi SW 4.6 mph - N/A   Scattered Clouds
7:23 PM 46.4 °F 44.3 °F 44.6 °F 93% 30.31 in 10.0 mi SW 4.6 mph - N/A   Mostly Cloudy
7:58 PM 46.0 °F 44.8 °F 44.4 °F 94% 30.32 in 10.0 mi SW 3.5 mph - N/A   Overcast
8:43 PM 44.6 °F - 44.6 °F 100% 30.31 in 10.0 mi Calm Calm - N/A   Overcast
8:48 PM 44.6 °F - 44.6 °F 100% 30.31 in 10.0 mi Calm Calm - N/A   Mostly Cloudy
8:53 PM 44.6 °F - 44.6 °F 100% 30.31 in 10.0 mi Calm Calm - N/A   Scattered Clouds
8:58 PM 44.1 °F - 43.5 °F 98% 30.33 in 10.0 mi Calm Calm - N/A   Scattered Clouds
9:08 PM 44.6 °F - 44.6 °F 100% 30.31 in 10.0 mi WSW 1.2 mph - N/A   Mostly Cloudy
9:58 PM 45.7 °F - 44.8 °F 97% 30.34 in 10.0 mi West 1.2 mph - N/A   Overcast
10:33 PM 46.4 °F - 44.6 °F 93% 30.32 in 10.0 mi SW 2.3 mph - N/A   Overcast
10:38 PM 46.4 °F - 44.6 °F 93% 30.32 in 10.0 mi SW 1.2 mph - N/A   Overcast
10:43 PM 46.4 °F - 44.6 °F 93% 30.32 in 10.0 mi SW 2.3 mph - N/A   Overcast
10:58 PM 46.4 °F - 45.0 °F 95% 30.34 in 10.0 mi SW 2.3 mph - N/A   Overcast
11:13 PM 46.4 °F - 44.6 °F 93% 30.33 in 10.0 mi SW 2.3 mph - N/A   Overcast
11:53 PM 46.4 °F - 44.6 °F 93% 30.33 in 9.0 mi SW 2.3 mph - N/A   Overcast
11:58 PM 46.4 °F - 45.0 °F 95% 30.35 in 7.0 mi SW 2.3 mph - N/A   Overcast